カタログに戻る

ATLAS 5 CENTAUR DEB

LostHEO
NORAD 44008·DEBRIS·🇺🇸 United States

打ち上げ Sep 17, 2014 から Cape Canaveral Space Force Station

Loading…

次のパス (今後24時間)

TLE

古いSource: Space-Track

元期: Oct 13, 2020, 21:28 UTC

1 44008U 14055BP  20287.89466529 -.00000090  00000-0  00000+0 0  9998
2 44008  22.3224 352.7656 3963810 154.9569 231.0370  1.81941307 14102

AllMySatでATLAS 5 CENTAUR DEBをリアルタイム追跡

Download on the App Store